User: anonymous   Login
Location: Fort Wayne
(41.1310°N, 85.1290°W)
Time: 12:26:20
(UTC-04:00)
Language:

Cosmos 1953 - Orbit

View from above orbital plane
View from above orbital plane
View from above satellite
View from above satellite

Ground track
Ground track

The orbit data is extracted from the following two-line orbital elements,

1 19210U 88050A   15142.51720401  .00001137  00000-0  80445-4 0  9994
2 19210 082.5196 046.3055 0012826 325.4524 034.5867 15.03867928464054
Epoch (UTC): 22 May 2015 12:24:46
Eccentricity: 0.0012826
inclination: 82.5196°
perigee height: 546 km
apogee height: 564 km
right ascension of ascending node: 46.3055°
argument of perigee: 325.4524°
revolutions per day: 15.03867928
mean anomaly at epoch: 34.5867°
orbit number at epoch: 46405

The dashed part of the orbit path shows where the satellite is in the earth's shadow,  

DLR